Satellite: RS-30
Catalog number: 32953
Epoch time:      12285.83658584
Element set:     222
Inclination:      082.5018 deg
RA of node:       222.5909 deg
Eccentricity:    0.0020356
Arg of perigee:   054.3672 deg
Mean anomaly:     305.9304 deg
Mean motion:   12.43028389 rev/day
Decay rate:        1.0e-07 rev/day^2
Epoch rev:           19905
Checksum:              292

Satellite: PHARMSAT
Catalog number: 35002
Epoch time:      12226.86484473
Element set:      78
Inclination:      040.4341 deg
RA of node:       050.6671 deg
Eccentricity:    0.0012079
Arg of perigee:   300.9773 deg
Mean anomaly:     059.0492 deg
Mean motion:   16.39309245 rev/day
Decay rate:   7.728342e-02 rev/day^2
Epoch rev:           18355
Checksum:              302

Satellite: METEOR-M
Catalog number: 35865
Epoch time:      12285.75204511
Element set:     860
Inclination:      098.6401 deg
RA of node:       337.8104 deg
Eccentricity:    0.0003372
Arg of perigee:   076.1729 deg
Mean anomaly:     283.9816 deg
Mean motion:   14.21871105 rev/day
Decay rate:       -7.1e-07 rev/day^2
Epoch rev:           15916
Checksum:              294

Satellite: RS-38
Catalog number: 35869
Epoch time:      12285.75559471
Element set:     844
Inclination:      098.6356 deg
RA of node:       337.7895 deg
Eccentricity:    0.0005601
Arg of perigee:   076.7746 deg
Mean anomaly:     283.4003 deg
Mean motion:   14.22091646 rev/day
Decay rate:       -1.3e-07 rev/day^2
Epoch rev:           15918
Checksum:              342

Satellite: JUGNU
Catalog number: 37839
Epoch time:      12285.62658424
Element set:     245
Inclination:      019.9595 deg
RA of node:       012.7939 deg
Eccentricity:    0.0018869
Arg of perigee:   066.4963 deg
Mean anomaly:     293.7475 deg
Mean motion:   14.12088381 rev/day
Decay rate:       6.20e-06 rev/day^2
Epoch rev:            5172
Checksum:              336

Satellite: SRMSAT
Catalog number: 37841
Epoch time:      12285.62740874
Element set:     247
Inclination:      019.9689 deg
RA of node:       019.9417 deg
Eccentricity:    0.0012067
Arg of perigee:   028.2135 deg
Mean anomaly:     331.9040 deg
Mean motion:   14.10170178 rev/day
Decay rate:       2.64e-06 rev/day^2
Epoch rev:            5164
Checksum:              289

Satellite: RAX-2
Catalog number: 37853
Epoch time:      12284.88959903
Element set:     309
Inclination:      101.7043 deg
RA of node:       017.7883 deg
Eccentricity:    0.0243561
Arg of perigee:   020.7592 deg
Mean anomaly:     340.3293 deg
Mean motion:   14.81026950 rev/day
Decay rate:      4.825e-05 rev/day^2
Epoch rev:            5151
Checksum:              304

Satellite: AUBIESAT
Catalog number: 37854
Epoch time:      12284.94652981
Element set:    0310
Inclination:      101.7061 deg
RA of node:       018.2825 deg
Eccentricity:    0.0243746
Arg of perigee:   019.9923 deg
Mean anomaly:     341.0622 deg
Mean motion:   14.81492548 rev/day
Decay rate:      5.241e-05 rev/day^2
Epoch rev:           05152
Checksum:              290

Satellite: HRBE
Catalog number: 37855
Epoch time:      12285.85126164
Element set:     306
Inclination:      101.7085 deg
RA of node:       019.5155 deg
Eccentricity:    0.0244899
Arg of perigee:   017.4034 deg
Mean anomaly:     343.5372 deg
Mean motion:   14.81309209 rev/day
Decay rate:      4.771e-05 rev/day^2
Epoch rev:            5165
Checksum:              299

Satellite: RS-39
Catalog number: 38051
Epoch time:      12285.86790509
Element set:     786
Inclination:      051.6354 deg
RA of node:       323.0631 deg
Eccentricity:    0.0013972
Arg of perigee:   093.1452 deg
Mean anomaly:     263.4998 deg
Mean motion:   15.26317073 rev/day
Decay rate:      9.744e-05 rev/day^2
Epoch rev:            3977
Checksum:              335

Satellite: E-STAR
Catalog number: 38079
Epoch time:      12285.72383750
Element set:     566
Inclination:      069.4773 deg
RA of node:       047.8423 deg
Eccentricity:    0.0704377
Arg of perigee:   099.9667 deg
Mean anomaly:     268.1603 deg
Mean motion:   14.23649968 rev/day
Decay rate:     4.9414e-04 rev/day^2
Epoch rev:            3411
Checksum:              352

Satellite: GOLIAT
Catalog number: 38085
Epoch time:      12285.73218347
Element set:     533
Inclination:      069.4832 deg
RA of node:       048.5308 deg
Eccentricity:    0.0709329
Arg of perigee:   100.4081 deg
Mean anomaly:     267.7693 deg
Mean motion:   14.22440169 rev/day
Decay rate:     4.9771e-04 rev/day^2
Epoch rev:            3409
Checksum:              316

Satellite: HORYU-2
Catalog number: 38340
Epoch time:      12285.82757397
Element set:     190
Inclination:      098.1852 deg
RA of node:       225.8847 deg
Eccentricity:    0.0012393
Arg of perigee:   326.2977 deg
Mean anomaly:     033.7458 deg
Mean motion:   14.70257183 rev/day
Decay rate:      1.646e-05 rev/day^2
Epoch rev:            2161
Checksum:              323

Satellite: RS-40
Catalog number: 38736
Epoch time:      12285.56721265
Element set:      77
Inclination:      082.4771 deg
RA of node:       310.1484 deg
Eccentricity:    0.0019485
Arg of perigee:   147.0477 deg
Mean anomaly:     213.1821 deg
Mean motion:   12.42646795 rev/day
Decay rate:        1.0e-07 rev/day^2
Epoch rev:             936
Checksum:              298

